This demonstration page uses our WeatherBlox Daily Observations layout. Learn more.

Left ArrowRight Arrow

38.20091, -84.87328

Hourly Observations for January 27, 2020

Temp ( °F °C ) Dew Point ( °F °C ) Humidity (%) Winds ( mph kmh ) Pressure ( in mb ) Visibility ( mi km ) Precip ( " mm )
12:53 am 00:53 Cloudy 39 3.9 36 2.2 89 89 SSW 5 7 29.88 1012 10 16 0.00 0.00
1:53 am 01:53 Cloudy 39 3.9 36 2.2 89 89 SW 3 6 29.88 1012 10 16 0.00 0.00
2:04 am 02:04 Cloudy 39 3.9 36 2.2 89 89 SW 3 6 29.90 1012 10 16 0.00 0.00
2:53 am 02:53 Cloudy 40 4.4 37 2.8 89 89 Calm 29.88 1012 10 16 0.00 0.00
3:28 am 03:28 Cloudy 40 4.4 37 2.8 89 89 Calm 29.90 1012 10 16 0.00 0.00
3:53 am 03:53 Cloudy 40 4.4 37 2.8 89 89 Calm 29.87 1012 10 16 0.00 0.00
4:35 am 04:35 Cloudy 40 4.4 37 2.8 89 89 Calm 29.90 1012 10 16 0.00 0.00
4:53 am 04:53 Cloudy 40 4.4 37 2.8 89 89 Calm 29.88 1012 10 16 0.00 0.00
5:31 am 05:31 Cloudy 39 3.9 37 2.8 93 93 Calm 29.90 1012 10 16 0.00 0.00
5:53 am 05:53 Mostly Cloudy 39 3.9 36 2.2 89 89 Calm 29.88 1012 8 13 0.00 0.00
6:45 am 06:45 Clear with Mist and Fog 34 1.1 33 0.6 97 97 Calm 29.91 1013 2 3 0.00 0.00
6:53 am 06:53 Clear with Mist and Fog 34 1.1 33 0.6 97 97 Calm 29.88 1012 2 3 0.00 0.00
6:56 am 06:56 Clear with Mist and Fog 34 1.1 32 0 92 92 Calm 29.91 1013 3 5 0.00 0.00
7:53 am 07:53 Sunny with Mist and Fog 32 0 30 -1.1 92 92 Calm 29.90 1013 3 5 0.00 0.00
8:14 am 08:14 Partly Cloudy with Mist and Fog 31 -0.6 31 -0.6 100 100 Calm 29.93 1014 3 4 0.00 0.00
8:26 am 08:26 Mostly Cloudy with Mist and Fog 33 0.6 31 -0.6 92 92 W 3 6 29.94 1014 3 5 0.00 0.00
8:53 am 08:53 Cloudy with Mist and Fog 36 2.2 34 1.1 93 93 Calm 29.92 1013 6 10 0.00 0.00
9:53 am 09:53 Mostly Cloudy 39 3.9 33 0.6 79 79 NW 6 9 29.92 1013 9 14 0.00 0.00
10:53 am 10:53 Mostly Sunny 41 5 33 0.6 73 73 NW 7 11 29.93 1014 10 16 0.00 0.00
11:53 am 11:53 Mostly Cloudy 43 6.1 31 -0.6 63 63 W 8 13 29.93 1014 10 16 0.00 0.00
12:53 pm 12:53 Cloudy 44 6.7 31 -0.6 60 60 NW 8 13 29.91 1013 10 16 0.00 0.00
1:53 pm 13:53 Partly Cloudy 46 7.8 33 0.6 61 61 NW 10 17 29.90 1013 10 16 0.00 0.00
2:53 pm 14:53 Mostly Cloudy 45 7.2 32 0 61 61 W 8 13 29.90 1013 10 16 0.00 0.00
3:53 pm 15:53 Partly Cloudy 46 7.8 27 -2.8 47 47 WNW 12 19 29.92 1013 10 16 0.00 0.00
4:53 pm 16:53 Mostly Cloudy 44 6.7 31 -0.6 60 60 NW 8 13 29.94 1014 10 16 0.00 0.00
5:53 pm 17:53 Mostly Cloudy 40 4.4 31 -0.6 70 70 NNW 8 13 29.97 1015 10 16 0.00 0.00
6:53 pm 18:53 Clear 37 2.8 30 -1.1 76 76 NW 9 15 29.99 1016 10 16 0.00 0.00
7:53 pm 19:53 Clear 35 1.7 29 -1.7 78 78 WNW 5 7 30.01 1016 10 16 0.00 0.00
8:13 pm 20:13 Mostly Cloudy 34 1.1 29 -1.7 82 82 NW 5 7 30.04 1017 10 16 0.00 0.00
8:53 pm 20:53 Cloudy 35 1.7 29 -1.7 78 78 NW 3 6 30.02 1017 10 16 0.00 0.00
9:53 pm 21:53 Cloudy 36 2.2 27 -2.8 70 70 NNW 10 17 30.03 1017 10 16 0.00 0.00
10:53 pm 22:53 Cloudy 36 2.2 27 -2.8 70 70 N 8 13 30.04 1017 10 16 0.00 0.00
11:53 pm 23:53 Cloudy 35 1.7 27 -2.8 72 72 NNW 9 15 30.04 1017 10 16 0.00 0.00

Powered by AerisWeather